QPF
0.00 0.00 0.02 0.07 0.16 0.22 0.21 0.14 0.09 0.09 0.02 0.01 0.02 0.04 0.09 0.10 0.11 0.13 0.18 0.15 0.11 0.10 0.07 0.07 0.17 0.24 0.19 0.17 0.14 0.11 0.12 0.11 0.10 0.08 0.07 0.05 0.04 0.03 0.04 0.05 0.07 0.05 0.05 0.06 0.06 0.05 0.04 0.03 0.03
0.00 0.01 0.04 0.11 0.19 0.22 0.17 0.13 0.13 0.07 0.01 0.01 0.01 0.04 0.06 0.05 0.06 0.11 0.18 0.13 0.08 0.06 0.05 0.04 0.08 0.12 0.12 0.13 0.10 0.11 0.09 0.07 0.06 0.05 0.04 0.04 0.03 0.03 0.04 0.05 0.05 0.03 0.03 0.03 0.04 0.04 0.04 0.04 0.04
0.00 0.01 0.07 0.14 0.18 0.19 0.14 0.11 0.08 0.03 0.01 0.02 0.02 0.02 0.04 0.06 0.07 0.11 0.16 0.10 0.06 0.05 0.04 0.05 0.08 0.09 0.08 0.08 0.07 0.06 0.04 0.04 0.05 0.04 0.04 0.03 0.02 0.02 0.03 0.03 0.04 0.03 0.02 0.02 0.03 0.03 0.03 0.04 0.04
0.02 0.05 0.07 0.13 0.16 0.11 0.08 0.09 0.06 0.04 0.02 0.02 0.01 0.01 0.02 0.05 0.06 0.09 0.11 0.06 0.04 0.07 0.07 0.03 0.05 0.05 0.06 0.06 0.04 0.03 0.03 0.03 0.04 0.04 0.03 0.02 0.02 0.02 0.03 0.04 0.04 0.04 0.03 0.03 0.03 0.03 0.04 0.04 0.04
0.03 0.08 0.11 0.12 0.09 0.05 0.04 0.05 0.05 0.05 0.03 0.02 0.02 0.02 0.02 0.06 0.07 0.08 0.07 0.03 0.03 0.06 0.07 0.03 0.04 0.05 0.06 0.05 0.04 0.04 0.03 0.03 0.03 0.03 0.02 0.02 0.02 0.02 0.03 0.03 0.03 0.03 0.03 0.03 0.04 0.04 0.04 0.04 0.03
0.04 0.07 0.11 0.11 0.08 0.05 0.03 0.04 0.04 0.06 0.04 0.02 0.02 0.01 0.02 0.05 0.06 0.07 0.06 0.02 0.02 0.05 0.06 0.04 0.03 0.05 0.05 0.04 0.03 0.03 0.03 0.02 0.02 0.02 0.02 0.02 0.03 0.02 0.02 0.02 0.03 0.03 0.03 0.04 0.04 0.05 0.04 0.03 0.03
0.04 0.06 0.08 0.08 0.08 0.07 0.03 0.03 0.04 0.06 0.04 0.02 0.01 0.02 0.02 0.04 0.04 0.02 0.02 0.01 0.01 0.02 0.03 0.03 0.03 0.03 0.03 0.03 0.01 0.02 0.02 0.02 0.02 0.01 0.01 0.02 0.04 0.04 0.03 0.03 0.03 0.02 0.02 0.04 0.04 0.04 0.03 0.03 0.03
0.01 0.04 0.07 0.07 0.08 0.08 0.03 0.03 0.03 0.03 0.03 0.01 0.01 0.02 0.02 0.02 0.01 0.00 0.01 0.02 0.01 0.02 0.04 0.05 0.04 0.03 0.02 0.02 0.01 0.01 0.02 0.03 0.03 0.01 0.02 0.02 0.04 0.04 0.03 0.02 0.02 0.01 0.01 0.03 0.02 0.02 0.03 0.03 0.02
0.00 0.06 0.10 0.09 0.08 0.06 0.03 0.03 0.03 0.02 0.02 0.02 0.02 0.03 0.01 0.01 0.00 0.00 0.01 0.02 0.03 0.03 0.04 0.04 0.03 0.03 0.03 0.02 0.01 0.01 0.01 0.01 0.01 0.01 0.01 0.02 0.02 0.01 0.01 0.01 0.01 0.01 0.01 0.02 0.02 0.03 0.03 0.04 0.03
0.01 0.08 0.08 0.05 0.03 0.02 0.02 0.02 0.02 0.04 0.05 0.04 0.03 0.02 0.00 0.00 0.00 0.01 0.01 0.02 0.02 0.03 0.02 0.02 0.01 0.02 0.02 0.01 0.01 0.01 0.00 0.01 0.01 0.00 0.00 0.01 0.00 0.00 0.00 0.00 0.01 0.01 0.01 0.01 0.03 0.03 0.03 0.04 0.03
0.01 0.04 0.03 0.01 0.01 0.01 0.00 0.01 0.02 0.04 0.06 0.07 0.06 0.01 0.01 0.01 0.00 0.01 0.02 0.02 0.03 0.02 0.01 0.01 0.01 0.01 0.02 0.02 0.02 0.01 0.01 0.00 0.00 0.00 0.00 0.00 0.00 0.00 0.00 0.00 0.01 0.00 0.01 0.01 0.01 0.02 0.02 0.02 0.02
0.01 0.02 0.02 0.01 0.01 0.01 0.01 0.01 0.02 0.03 0.04 0.05 0.10 0.03 0.01 0.02 0.01 0.01 0.01 0.01 0.01 0.00 0.01 0.01 0.01 0.01 0.01 0.01 0.01 0.00 0.00 0.00 0.00 0.00 0.00 0.00 0.00 0.00 0.00 0.00 0.00 0.00 0.01 0.01 0.00 0.01 0.01 0.01 0.01
0.01 0.02 0.01 0.01 0.01 0.01 0.01 0.03 0.03 0.03 0.02 0.04 0.08 0.05 0.02 0.01 0.01 0.01 0.00 0.01 0.01 0.02 0.02 0.03 0.02 0.01 0.00 0.00 0.00 0.00 0.00 0.00 0.00 0.00 0.00 0.00 0.00 0.00 0.00 0.00 0.00 0.00 0.00 0.01 0.00 0.00 0.01 0.01 0.02
0.01 0.01 0.01 0.00 0.00 0.01 0.01 0.02 0.02 0.03 0.02 0.03 0.05 0.05 0.03 0.01 0.01 0.01 0.01 0.01 0.02 0.05 0.05 0.04 0.03 0.01 0.00 0.00 0.00 0.00 0.00 0.00 0.00 0.00 0.00 0.00 0.00 0.00 0.00 0.00 0.00 0.00 0.00 0.00 0.00 0.00 0.01 0.01 0.02
0.01 0.02 0.02 0.02 0.00 0.00 0.01 0.05 0.04 0.02 0.02 0.02 0.02 0.03 0.03 0.01 0.01 0.00 0.01 0.01 0.01 0.02 0.04 0.02 0.01 0.00 0.00 0.00 0.00 0.00 0.00 0.00 0.00 0.00 0.00 0.00 0.00 0.00 0.00 0.00 0.00 0.01 0.01 0.01 0.00 0.00 0.01 0.01 0.02
0.03 0.04 0.06 0.05 0.02 0.01 0.03 0.08 0.03 0.01 0.01 0.02 0.03 0.03 0.02 0.02 0.02 0.01 0.01 0.01 0.01 0.01 0.01 0.01 0.00 0.00 0.00 0.00 0.00 0.00 0.00 0.00 0.00 0.00 0.00 0.00 0.00 0.00 0.00 0.00 0.00 0.01 0.01 0.01 0.01 0.01 0.01 0.02 0.03
0.04 0.04 0.06 0.06 0.04 0.03 0.04 0.05 0.02 0.01 0.01 0.02 0.03 0.04 0.05 0.03 0.02 0.01 0.01 0.01 0.01 0.00 0.00 0.00 0.00 0.00 0.00 0.00 0.00 0.00 0.00 0.00 0.00 0.00 0.00 0.00 0.01 0.00 0.00 0.00 0.01 0.01 0.01 0.02 0.01 0.02 0.02 0.03 0.04
0.03 0.02 0.03 0.05 0.03 0.03 0.04 0.03 0.02 0.03 0.01 0.01 0.03 0.06 0.07 0.05 0.03 0.01 0.01 0.01 0.01 0.01 0.00 0.00 0.00 0.00 0.00 0.00 0.00 0.00 0.00 0.00 0.00 0.00 0.00 0.00 0.01 0.00 0.00 0.00 0.00 0.01 0.02 0.03 0.02 0.03 0.04 0.04 0.04
0.02 0.01 0.02 0.02 0.01 0.03 0.03 0.02 0.02 0.02 0.01 0.01 0.02 0.05 0.06 0.05 0.03 0.01 0.01 0.01 0.01 0.01 0.01 0.00 0.00 0.00 0.00 0.00 0.00 0.00 0.00 0.00 0.00 0.00 0.00 0.00 0.01 0.00 0.00 0.00 0.00 0.01 0.02 0.02 0.03 0.04 0.06 0.05 0.05
0.00 0.02 0.03 0.02 0.01 0.01 0.02 0.02 0.01 0.02 0.02 0.01 0.02 0.04 0.05 0.03 0.02 0.00 0.01 0.01 0.01 0.01 0.01 0.00 0.00 0.00 0.00 0.00 0.00 0.00 0.00 0.00 0.00 0.00 0.00 0.00 0.01 0.01 0.00 0.00 0.01 0.01 0.01 0.01 0.03 0.04 0.07 0.05 0.04
0.00 0.01 0.03 0.02 0.01 0.01 0.02 0.04 0.03 0.03 0.02 0.01 0.02 0.03 0.03 0.03 0.01 0.00 0.01 0.02 0.01 0.01 0.00 0.00 0.00 0.00 0.00 0.00 0.00 0.00 0.00 0.00 0.00 0.00 0.00 0.00 0.00 0.01 0.01 0.01 0.01 0.01 0.01 0.01 0.03 0.03 0.05 0.06 0.04
0.00 0.00 0.01 0.02 0.03 0.04 0.02 0.05 0.05 0.02 0.03 0.02 0.02 0.03 0.02 0.02 0.01 0.01 0.02 0.02 0.01 0.01 0.01 0.00 0.00 0.00 0.00 0.00 0.00 0.00 0.00 0.00 0.00 0.00 0.00 0.00 0.00 0.01 0.01 0.01 0.02 0.01 0.01 0.02 0.01 0.01 0.03 0.05 0.05
0.00 0.00 0.00 0.01 0.03 0.03 0.04 0.04 0.05 0.03 0.03 0.02 0.01 0.02 0.02 0.02 0.01 0.01 0.01 0.01 0.00 0.01 0.01 0.00 0.00 0.00 0.00 0.00 0.00 0.00 0.00 0.00 0.00 0.00 0.00 0.00 0.00 0.01 0.01 0.01 0.02 0.02 0.01 0.02 0.02 0.02 0.02 0.03 0.03
0.00 0.00 0.01 0.02 0.03 0.04 0.03 0.04 0.05 0.03 0.03 0.02 0.01 0.01 0.01 0.01 0.01 0.01 0.01 0.01 0.01 0.01 0.00 0.00 0.00 0.00 0.00 0.00 0.00 0.00 0.00 0.00 0.00 0.00 0.00 0.00 0.01 0.01 0.00 0.00 0.01 0.01 0.02 0.02 0.02 0.01 0.02 0.03 0.03
0.00 0.02 0.03 0.04 0.04 0.02 0.01 0.02 0.02 0.00 0.01 0.00 0.00 0.00 0.01 0.01 0.01 0.01 0.01 0.01 0.01 0.00 0.00 0.01 0.01 0.00 0.00 0.00 0.00 0.00 0.00 0.01 0.01 0.01 0.00 0.00 0.00 0.00 0.00 0.00 0.00 0.00 0.01 0.01 0.02 0.02 0.02 0.02 0.02
0.00 0.01 0.03 0.04 0.04 0.03 0.01 0.01 0.01 0.00 0.00 0.00 0.00 0.00 0.01 0.01 0.01 0.01 0.01 0.01 0.00 0.00 0.00 0.00 0.00 0.00 0.00 0.00 0.00 0.00 0.00 0.01 0.01 0.00 0.00 0.00 0.00 0.00 0.00 0.00 0.00 0.00 0.00 0.00 0.00 0.01 0.01 0.01 0.01
0.00 0.00 0.01 0.02 0.02 0.02 0.02 0.01 0.01 0.00 0.00 0.00 0.00 0.01 0.01 0.01 0.01 0.01 0.00 0.00 0.00 0.00 0.00 0.00 0.00 0.00 0.00 0.00 0.00 0.00 0.01 0.00 0.01 0.00 0.00 0.00 0.00 0.00 0.00 0.00 0.00 0.00 0.00 0.01 0.00 0.01 0.01 0.01 0.01
0.00 0.00 0.00 0.02 0.03 0.04 0.02 0.01 0.01 0.00 0.00 0.00 0.00 0.01 0.01 0.01 0.01 0.00 0.00 0.01 0.01 0.00 0.00 0.00 0.00 0.00 0.00 0.00 0.00 0.00 0.00 0.00 0.00 0.00 0.00 0.00 0.00 0.00 0.00 0.00 0.00 0.01 0.01 0.00 0.01 0.01 0.01 0.01 0.01
0.00 0.00 0.00 0.01 0.02 0.03 0.04 0.03 0.01 0.00 0.00 0.00 0.00 0.01 0.01 0.01 0.00 0.00 0.00 0.01 0.01 0.00 0.00 0.00 0.00 0.00 0.00 0.00 0.00 0.00 0.00 0.00 0.00 0.00 0.00 0.00 0.00 0.00 0.00 0.00 0.00 0.00 0.01 0.00 0.01 0.01 0.01 0.01 0.01
0.00 0.00 0.00 0.02 0.02 0.01 0.04 0.03 0.01 0.00 0.00 0.00 0.00 0.00 0.01 0.01 0.01 0.00 0.01 0.01 0.01 0.00 0.00 0.00 0.00 0.00 0.00 0.00 0.00 0.00 0.00 0.00 0.00 0.00 0.00 0.00 0.00 0.00 0.00 0.00 0.00 0.00 0.01 0.00 0.00 0.00 0.00 0.01 0.01
MSLP
1007.52 1008.41 1009.52 1010.67 1011.69 1012.41 1012.76 1012.74 1012.42 1011.95 1011.51 1011.25 1011.28 1011.61 1012.19 1012.91 1013.61 1014.16 1014.47 1014.50 1014.29 1013.92 1013.50 1013.13 1012.89 1012.80 1012.85 1012.99 1013.17 1013.33 1013.47 1013.58 1013.68 1013.80 1013.96 1014.17 1014.41 1014.66 1014.87 1015.03 1015.12 1015.14 1015.14 1015.12 1015.12 1015.15 1015.19 1015.24 1015.27
1007.73 1008.74 1009.92 1011.10 1012.07 1012.71 1012.94 1012.79 1012.35 1011.80 1011.33 1011.07 1011.13 1011.52 1012.16 1012.93 1013.67 1014.24 1014.56 1014.59 1014.38 1014.03 1013.63 1013.29 1013.09 1013.03 1013.11 1013.27 1013.45 1013.61 1013.72 1013.81 1013.88 1013.97 1014.10 1014.27 1014.48 1014.69 1014.87 1015.00 1015.08 1015.11 1015.12 1015.13 1015.17 1015.23 1015.30 1015.37 1015.40
1008.10 1009.19 1010.40 1011.54 1012.44 1012.97 1013.08 1012.82 1012.30 1011.71 1011.23 1011.00 1011.10 1011.52 1012.19 1012.96 1013.69 1014.24 1014.52 1014.54 1014.33 1014.00 1013.64 1013.36 1013.22 1013.22 1013.35 1013.53 1013.73 1013.88 1013.99 1014.05 1014.09 1014.15 1014.25 1014.38 1014.55 1014.72 1014.87 1014.98 1015.04 1015.08 1015.11 1015.16 1015.24 1015.34 1015.45 1015.54 1015.59
1008.60 1009.72 1010.91 1011.99 1012.78 1013.19 1013.19 1012.85 1012.29 1011.69 1011.24 1011.05 1011.18 1011.63 1012.28 1013.02 1013.70 1014.18 1014.41 1014.39 1014.18 1013.88 1013.58 1013.38 1013.32 1013.40 1013.57 1013.79 1014.00 1014.16 1014.25 1014.29 1014.31 1014.35 1014.41 1014.52 1014.66 1014.80 1014.92 1015.02 1015.08 1015.13 1015.19 1015.28 1015.40 1015.54 1015.68 1015.80 1015.85
1009.19 1010.30 1011.43 1012.39 1013.06 1013.36 1013.27 1012.88 1012.32 1011.76 1011.36 1011.23 1011.41 1011.85 1012.48 1013.15 1013.73 1014.12 1014.28 1014.22 1014.01 1013.75 1013.52 1013.40 1013.42 1013.57 1013.80 1014.05 1014.26 1014.41 1014.49 1014.51 1014.51 1014.53 1014.59 1014.68 1014.81 1014.94 1015.06 1015.16 1015.23 1015.30 1015.38 1015.49 1015.64 1015.81 1015.97 1016.09 1016.15
1009.78 1010.85 1011.88 1012.72 1013.26 1013.45 1013.31 1012.91 1012.39 1011.91 1011.60 1011.54 1011.76 1012.20 1012.77 1013.35 1013.83 1014.11 1014.19 1014.08 1013.88 1013.65 1013.49 1013.46 1013.56 1013.76 1014.03 1014.28 1014.49 1014.62 1014.67 1014.67 1014.66 1014.68 1014.74 1014.85 1015.00 1015.15 1015.28 1015.40 1015.48 1015.56 1015.65 1015.77 1015.93 1016.10 1016.25 1016.37 1016.42
1010.33 1011.31 1012.22 1012.93 1013.35 1013.47 1013.30 1012.93 1012.49 1012.12 1011.92 1011.95 1012.20 1012.64 1013.15 1013.64 1013.99 1014.17 1014.17 1014.02 1013.82 1013.63 1013.53 1013.56 1013.72 1013.96 1014.24 1014.48 1014.66 1014.75 1014.77 1014.75 1014.74 1014.77 1014.86 1015.00 1015.18 1015.37 1015.54 1015.67 1015.77 1015.86 1015.94 1016.05 1016.18 1016.32 1016.45 1016.54 1016.57
1010.77 1011.64 1012.42 1013.00 1013.33 1013.40 1013.24 1012.94 1012.61 1012.37 1012.29 1012.41 1012.71 1013.13 1013.59 1013.97 1014.22 1014.30 1014.22 1014.04 1013.83 1013.67 1013.62 1013.70 1013.89 1014.15 1014.41 1014.63 1014.76 1014.81 1014.80 1014.76 1014.75 1014.79 1014.91 1015.10 1015.32 1015.56 1015.76 1015.92 1016.03 1016.10 1016.17 1016.24 1016.32 1016.42 1016.50 1016.55 1016.55
1011.10 1011.85 1012.49 1012.96 1013.22 1013.27 1013.15 1012.94 1012.74 1012.64 1012.69 1012.89 1013.23 1013.64 1014.03 1014.33 1014.48 1014.47 1014.33 1014.11 1013.90 1013.76 1013.74 1013.84 1014.04 1014.29 1014.53 1014.71 1014.80 1014.80 1014.76 1014.70 1014.69 1014.75 1014.90 1015.13 1015.39 1015.66 1015.89 1016.07 1016.17 1016.23 1016.26 1016.28 1016.31 1016.34 1016.37 1016.38 1016.36
1011.33 1011.95 1012.48 1012.85 1013.06 1013.11 1013.05 1012.95 1012.89 1012.91 1013.07 1013.35 1013.71 1014.10 1014.43 1014.65 1014.72 1014.63 1014.44 1014.20 1013.98 1013.85 1013.84 1013.95 1014.15 1014.38 1014.59 1014.72 1014.77 1014.74 1014.67 1014.61 1014.59 1014.67 1014.84 1015.09 1015.38 1015.67 1015.91 1016.08 1016.18 1016.21 1016.20 1016.17 1016.14 1016.12 1016.10 1016.08 1016.05
1011.50 1012.01 1012.43 1012.73 1012.91 1012.98 1012.99 1012.99 1013.04 1013.17 1013.41 1013.74 1014.11 1014.47 1014.75 1014.90 1014.89 1014.75 1014.52 1014.26 1014.04 1013.91 1013.90 1014.01 1014.19 1014.40 1014.58 1014.70 1014.72 1014.67 1014.59 1014.52 1014.51 1014.58 1014.76 1015.00 1015.29 1015.57 1015.81 1015.97 1016.06 1016.06 1016.02 1015.95 1015.88 1015.82 1015.77 1015.74 1015.72
1011.67 1012.08 1012.41 1012.66 1012.82 1012.93 1013.00 1013.08 1013.21 1013.42 1013.70 1014.05 1014.41 1014.72 1014.95 1015.04 1014.98 1014.81 1014.55 1014.28 1014.06 1013.93 1013.91 1014.01 1014.19 1014.38 1014.55 1014.66 1014.68 1014.64 1014.56 1014.49 1014.47 1014.54 1014.69 1014.91 1015.16 1015.42 1015.63 1015.78 1015.85 1015.84 1015.79 1015.70 1015.62 1015.55 1015.50 1015.47 1015.47
1011.87 1012.20 1012.47 1012.69 1012.85 1012.98 1013.09 1013.23 1013.40 1013.64 1013.94 1014.26 1014.59 1014.85 1015.03 1015.07 1014.99 1014.79 1014.53 1014.26 1014.04 1013.91 1013.89 1013.98 1014.15 1014.34 1014.52 1014.64 1014.69 1014.68 1014.62 1014.56 1014.54 1014.57 1014.68 1014.85 1015.05 1015.26 1015.43 1015.56 1015.62 1015.62 1015.58 1015.52 1015.45 1015.41 1015.38 1015.39 1015.42
1012.14 1012.41 1012.64 1012.84 1013.00 1013.14 1013.28 1013.44 1013.62 1013.85 1014.12 1014.40 1014.67 1014.88 1015.01 1015.03 1014.93 1014.74 1014.48 1014.23 1014.02 1013.89 1013.87 1013.96 1014.12 1014.33 1014.54 1014.70 1014.80 1014.83 1014.81 1014.76 1014.72 1014.72 1014.77 1014.86 1014.99 1015.14 1015.28 1015.38 1015.45 1015.48 1015.49 1015.47 1015.46 1015.46 1015.49 1015.54 1015.61
1012.45 1012.69 1012.91 1013.09 1013.26 1013.41 1013.55 1013.70 1013.86 1014.04 1014.25 1014.46 1014.67 1014.84 1014.94 1014.95 1014.86 1014.69 1014.47 1014.24 1014.04 1013.92 1013.90 1013.99 1014.16 1014.39 1014.63 1014.84 1015.00 1015.09 1015.11 1015.08 1015.03 1014.99 1014.96 1014.98 1015.02 1015.10 1015.20 1015.29 1015.39 1015.46 1015.53 1015.59 1015.66 1015.73 1015.81 1015.91 1016.02
1012.79 1013.01 1013.22 1013.41 1013.58 1013.73 1013.86 1013.97 1014.09 1014.20 1014.34 1014.48 1014.63 1014.76 1014.85 1014.88 1014.83 1014.70 1014.53 1014.34 1014.16 1014.05 1014.03 1014.11 1014.28 1014.53 1014.80 1015.07 1015.29 1015.44 1015.51 1015.50 1015.44 1015.35 1015.25 1015.18 1015.15 1015.16 1015.22 1015.31 1015.43 1015.57 1015.71 1015.86 1016.00 1016.15 1016.29 1016.44 1016.58
1013.09 1013.31 1013.53 1013.73 1013.91 1014.06 1014.16 1014.24 1014.29 1014.33 1014.39 1014.47 1014.57 1014.68 1014.78 1014.85 1014.86 1014.80 1014.69 1014.54 1014.40 1014.30 1014.27 1014.33 1014.50 1014.75 1015.06 1015.37 1015.65 1015.85 1015.97 1015.98 1015.90 1015.77 1015.62 1015.47 1015.36 1015.31 1015.34 1015.43 1015.58 1015.77 1015.98 1016.20 1016.42 1016.63 1016.83 1017.01 1017.18
1013.32 1013.55 1013.79 1014.01 1014.20 1014.34 1014.42 1014.45 1014.43 1014.40 1014.39 1014.41 1014.48 1014.59 1014.73 1014.86 1014.95 1014.98 1014.95 1014.86 1014.75 1014.65 1014.61 1014.65 1014.80 1015.04 1015.36 1015.70 1016.02 1016.27 1016.42 1016.46 1016.38 1016.22 1016.01 1015.80 1015.63 1015.53 1015.53 1015.62 1015.79 1016.02 1016.29 1016.56 1016.84 1017.09 1017.32 1017.53 1017.71
1013.46 1013.70 1013.96 1014.21 1014.41 1014.55 1014.61 1014.58 1014.50 1014.40 1014.32 1014.30 1014.35 1014.49 1014.67 1014.88 1015.07 1015.21 1015.26 1015.24 1015.17 1015.08 1015.02 1015.03 1015.14 1015.36 1015.66 1016.02 1016.36 1016.65 1016.83 1016.89 1016.82 1016.64 1016.40 1016.15 1015.93 1015.80 1015.76 1015.84 1016.02 1016.27 1016.57 1016.88 1017.18 1017.45 1017.70 1017.91 1018.10
1013.50 1013.76 1014.05 1014.32 1014.54 1014.67 1014.70 1014.63 1014.48 1014.31 1014.17 1014.11 1014.16 1014.32 1014.57 1014.87 1015.17 1015.42 1015.57 1015.63 1015.60 1015.52 1015.44 1015.41 1015.48 1015.66 1015.94 1016.29 1016.64 1016.95 1017.16 1017.25 1017.19 1017.02 1016.77 1016.49 1016.25 1016.08 1016.03 1016.09 1016.26 1016.51 1016.80 1017.11 1017.41 1017.68 1017.91 1018.12 1018.31
1013.48 1013.76 1014.07 1014.37 1014.60 1014.72 1014.72 1014.59 1014.37 1014.13 1013.93 1013.83 1013.87 1014.05 1014.37 1014.77 1015.18 1015.54 1015.80 1015.94 1015.96 1015.90 1015.82 1015.76 1015.79 1015.92 1016.17 1016.49 1016.84 1017.17 1017.40 1017.51 1017.49 1017.33 1017.09 1016.82 1016.56 1016.38 1016.30 1016.34 1016.49 1016.72 1016.99 1017.27 1017.54 1017.78 1017.99 1018.18 1018.36
1013.42 1013.73 1014.08 1014.40 1014.63 1014.74 1014.68 1014.49 1014.19 1013.86 1013.59 1013.44 1013.46 1013.67 1014.04 1014.52 1015.04 1015.51 1015.89 1016.12 1016.21 1016.19 1016.11 1016.04 1016.03 1016.13 1016.33 1016.63 1016.97 1017.30 1017.56 1017.70 1017.71 1017.59 1017.37 1017.12 1016.87 1016.68 1016.59 1016.61 1016.72 1016.91 1017.14 1017.38 1017.60 1017.80 1017.97 1018.14 1018.31
1013.38 1013.74 1014.12 1014.46 1014.69 1014.76 1014.65 1014.37 1013.97 1013.55 1013.19 1012.97 1012.95 1013.16 1013.57 1014.12 1014.73 1015.32 1015.80 1016.14 1016.31 1016.35 1016.30 1016.23 1016.21 1016.28 1016.45 1016.72 1017.05 1017.38 1017.65 1017.83 1017.87 1017.79 1017.62 1017.39 1017.16 1016.99 1016.89 1016.88 1016.97 1017.12 1017.30 1017.49 1017.66 1017.81 1017.94 1018.08 1018.23
1013.40 1013.80 1014.22 1014.58 1014.80 1014.82 1014.63 1014.26 1013.76 1013.22 1012.76 1012.46 1012.39 1012.58 1013.00 1013.60 1014.29 1014.98 1015.57 1016.01 1016.28 1016.39 1016.40 1016.36 1016.34 1016.39 1016.55 1016.80 1017.11 1017.43 1017.71 1017.91 1017.99 1017.96 1017.83 1017.64 1017.44 1017.28 1017.19 1017.17 1017.24 1017.35 1017.50 1017.64 1017.77 1017.88 1017.97 1018.07 1018.20
1013.46 1013.93 1014.39 1014.76 1014.96 1014.93 1014.67 1014.19 1013.58 1012.93 1012.36 1011.97 1011.84 1011.99 1012.40 1013.03 1013.77 1014.54 1015.23 1015.77 1016.14 1016.35 1016.43 1016.44 1016.44 1016.50 1016.65 1016.88 1017.17 1017.48 1017.76 1017.97 1018.08 1018.08 1018.00 1017.86 1017.70 1017.57 1017.49 1017.48 1017.53 1017.63 1017.75 1017.86 1017.95 1018.03 1018.09 1018.15 1018.25
1013.56 1014.10 1014.60 1014.98 1015.15 1015.08 1014.74 1014.17 1013.46 1012.71 1012.04 1011.57 1011.36 1011.46 1011.85 1012.48 1013.25 1014.07 1014.84 1015.47 1015.94 1016.25 1016.41 1016.49 1016.54 1016.62 1016.76 1016.98 1017.24 1017.54 1017.81 1018.02 1018.15 1018.18 1018.14 1018.04 1017.93 1017.83 1017.78 1017.79 1017.84 1017.94 1018.05 1018.15 1018.22 1018.28 1018.31 1018.35 1018.42
1013.66 1014.26 1014.79 1015.18 1015.33 1015.21 1014.81 1014.18 1013.39 1012.57 1011.83 1011.28 1011.01 1011.06 1011.41 1012.02 1012.80 1013.64 1014.46 1015.17 1015.73 1016.12 1016.37 1016.52 1016.63 1016.74 1016.89 1017.10 1017.34 1017.61 1017.86 1018.06 1018.19 1018.25 1018.24 1018.18 1018.12 1018.06 1018.05 1018.08 1018.16 1018.27 1018.39 1018.49 1018.57 1018.61 1018.64 1018.66 1018.70
1013.70 1014.35 1014.90 1015.29 1015.42 1015.27 1014.84 1014.17 1013.35 1012.49 1011.72 1011.13 1010.82 1010.82 1011.12 1011.69 1012.44 1013.29 1014.12 1014.87 1015.50 1015.97 1016.30 1016.53 1016.70 1016.85 1017.02 1017.22 1017.45 1017.69 1017.91 1018.10 1018.23 1018.30 1018.32 1018.30 1018.28 1018.27 1018.30 1018.38 1018.48 1018.62 1018.75 1018.87 1018.96 1019.02 1019.04 1019.06 1019.08
1013.67 1014.32 1014.88 1015.24 1015.36 1015.19 1014.76 1014.09 1013.29 1012.44 1011.68 1011.09 1010.76 1010.72 1010.98 1011.49 1012.19 1013.00 1013.82 1014.59 1015.24 1015.78 1016.18 1016.49 1016.72 1016.92 1017.12 1017.33 1017.55 1017.77 1017.97 1018.15 1018.27 1018.35 1018.40 1018.42 1018.44 1018.48 1018.55 1018.67 1018.81 1018.97 1019.13 1019.27 1019.38 1019.45 1019.49 1019.51 1019.53
1013.53 1014.16 1014.68 1015.01 1015.10 1014.93 1014.51 1013.89 1013.14 1012.35 1011.64 1011.08 1010.76 1010.70 1010.91 1011.36 1012.00 1012.74 1013.52 1014.26 1014.93 1015.51 1015.97 1016.35 1016.65 1016.91 1017.15 1017.39 1017.62 1017.84 1018.03 1018.20 1018.33 1018.43 1018.49 1018.55 1018.62 1018.70 1018.82 1018.97 1019.14 1019.33 1019.51 1019.67 1019.80 1019.90 1019.96 1019.99 1020.02
Thickness
5814 5817 5817 5804 5781 5768 5766 5775 5784 5784 5787 5795 5798 5792 5779 5770 5762 5750 5768 5781 5781 5779 5775 5773 5771 5770 5768 5767 5765 5763 5762 5761 5759 5757 5756 5754 5753 5752 5750 5749 5748 5747 5747 5746 5746 5746 5747 5748 5748
5815 5818 5808 5791 5768 5757 5760 5776 5777 5782 5790 5796 5795 5789 5779 5770 5773 5768 5771 5778 5780 5777 5773 5770 5769 5767 5766 5764 5763 5761 5759 5758 5756 5754 5753 5751 5750 5749 5747 5746 5745 5744 5744 5743 5743 5743 5744 5744 5745
5815 5815 5795 5780 5769 5761 5761 5775 5779 5786 5794 5793 5786 5783 5773 5766 5770 5769 5773 5779 5778 5774 5770 5767 5766 5764 5763 5761 5760 5758 5756 5755 5753 5752 5750 5749 5747 5746 5744 5743 5742 5741 5741 5740 5740 5740 5740 5741 5742
5811 5801 5791 5775 5765 5773 5775 5778 5784 5783 5788 5792 5785 5771 5768 5772 5772 5773 5777 5778 5775 5771 5767 5764 5763 5761 5760 5759 5757 5755 5754 5752 5751 5749 5747 5746 5744 5743 5742 5740 5739 5739 5738 5737 5737 5737 5737 5738 5739
5806 5788 5774 5767 5767 5776 5782 5785 5786 5780 5780 5783 5778 5761 5756 5768 5774 5775 5776 5775 5772 5769 5765 5761 5760 5759 5758 5756 5754 5753 5751 5749 5748 5746 5745 5743 5741 5740 5739 5737 5736 5736 5735 5734 5734 5734 5735 5735 5736
5789 5784 5763 5757 5763 5774 5781 5786 5784 5777 5777 5779 5773 5760 5753 5766 5769 5771 5773 5772 5770 5767 5763 5760 5758 5757 5755 5753 5752 5750 5749 5747 5746 5744 5743 5741 5739 5738 5736 5734 5733 5732 5732 5731 5732 5732 5732 5732 5733
5781 5773 5763 5763 5760 5764 5774 5784 5779 5773 5770 5773 5775 5757 5752 5761 5766 5769 5770 5769 5768 5766 5764 5760 5757 5755 5753 5752 5750 5748 5747 5746 5744 5742 5741 5740 5737 5735 5734 5732 5731 5730 5729 5729 5728 5729 5729 5730 5731
5790 5775 5766 5764 5759 5759 5774 5779 5779 5774 5770 5780 5779 5757 5748 5757 5766 5767 5767 5766 5765 5765 5764 5761 5758 5755 5753 5751 5749 5748 5746 5745 5743 5742 5740 5738 5736 5734 5732 5730 5729 5728 5727 5726 5726 5726 5727 5728 5728
5793 5767 5756 5760 5759 5761 5773 5771 5775 5781 5774 5773 5773 5766 5762 5764 5764 5761 5760 5760 5761 5761 5762 5762 5759 5757 5755 5753 5750 5748 5746 5745 5743 5741 5740 5738 5736 5734 5731 5729 5728 5726 5725 5725 5724 5724 5725 5725 5726
5783 5757 5760 5771 5773 5769 5771 5770 5771 5768 5760 5758 5758 5760 5762 5761 5760 5756 5754 5753 5755 5757 5759 5761 5760 5758 5756 5754 5751 5749 5747 5745 5743 5742 5741 5739 5737 5734 5731 5728 5726 5725 5724 5723 5723 5722 5723 5724 5725
5779 5764 5770 5776 5779 5775 5769 5768 5772 5761 5749 5752 5750 5752 5756 5756 5755 5754 5753 5753 5754 5756 5758 5759 5759 5758 5755 5753 5751 5749 5747 5745 5744 5742 5740 5738 5736 5733 5730 5727 5725 5724 5723 5722 5722 5722 5723 5724 5725
5773 5771 5775 5774 5776 5771 5767 5766 5763 5758 5754 5760 5758 5755 5753 5752 5752 5752 5751 5751 5752 5753 5754 5757 5758 5757 5754 5752 5750 5749 5747 5745 5743 5742 5740 5738 5736 5733 5731 5729 5726 5724 5723 5723 5722 5722 5723 5724 5726
5769 5767 5772 5774 5773 5770 5766 5760 5756 5754 5759 5760 5756 5752 5749 5750 5750 5752 5752 5751 5750 5749 5751 5753 5755 5754 5752 5751 5750 5748 5746 5744 5742 5741 5739 5737 5735 5733 5731 5729 5726 5724 5723 5722 5722 5722 5722 5722 5723
5768 5768 5767 5768 5767 5766 5758 5755 5753 5750 5756 5753 5749 5746 5748 5748 5748 5748 5749 5748 5748 5748 5748 5750 5751 5752 5752 5750 5749 5747 5746 5744 5742 5740 5739 5737 5735 5733 5731 5728 5726 5724 5722 5721 5721 5720 5719 5719 5719
5770 5759 5756 5759 5760 5760 5756 5741 5745 5751 5753 5747 5745 5745 5745 5746 5747 5747 5748 5748 5748 5748 5748 5748 5750 5751 5750 5748 5747 5746 5745 5743 5742 5740 5739 5737 5735 5733 5730 5727 5725 5723 5721 5720 5719 5718 5717 5717 5717
5759 5747 5736 5748 5755 5756 5744 5724 5742 5751 5749 5742 5742 5742 5742 5744 5747 5749 5749 5750 5750 5748 5746 5747 5749 5748 5746 5745 5745 5745 5743 5742 5740 5738 5737 5736 5734 5731 5729 5726 5724 5722 5721 5719 5717 5716 5714 5713 5712
5743 5734 5732 5739 5752 5751 5740 5727 5740 5749 5747 5741 5741 5741 5741 5741 5746 5748 5749 5749 5749 5748 5746 5745 5746 5745 5744 5743 5743 5742 5741 5739 5738 5736 5734 5733 5732 5730 5728 5726 5724 5722 5720 5718 5717 5714 5712 5710 5710
5733 5738 5736 5735 5747 5746 5736 5733 5739 5745 5744 5742 5741 5741 5741 5741 5743 5747 5747 5747 5747 5747 5746 5744 5744 5744 5743 5743 5741 5739 5738 5737 5735 5733 5732 5731 5730 5728 5727 5726 5724 5722 5719 5716 5715 5713 5712 5711 5710
5747 5742 5737 5741 5751 5742 5734 5733 5737 5743 5743 5740 5741 5741 5740 5741 5745 5746 5745 5744 5744 5744 5743 5742 5742 5742 5741 5739 5737 5734 5732 5733 5732 5731 5730 5730 5729 5727 5726 5725 5723 5721 5718 5716 5715 5713 5711 5710 5711
5745 5737 5735 5741 5750 5743 5735 5734 5742 5744 5742 5743 5743 5741 5741 5741 5741 5741 5742 5742 5741 5741 5742 5742 5742 5741 5740 5738 5738 5736 5734 5732 5731 5730 5729 5729 5728 5727 5726 5725 5722 5720 5718 5716 5715 5713 5711 5711 5712
5740 5736 5734 5732 5740 5743 5733 5726 5734 5743 5746 5747 5747 5746 5745 5743 5740 5739 5739 5739 5739 5739 5741 5742 5741 5740 5740 5739 5737 5735 5733 5731 5729 5727 5727 5727 5726 5725 5725 5724 5723 5721 5719 5716 5715 5714 5711 5708 5711
5731 5745 5740 5734 5725 5720 5728 5707 5726 5737 5737 5741 5743 5746 5746 5746 5744 5741 5739 5737 5738 5740 5742 5743 5742 5741 5739 5737 5735 5732 5728 5725 5726 5727 5726 5727 5726 5724 5724 5723 5723 5721 5719 5718 5717 5716 5715 5712 5708
5738 5747 5741 5735 5726 5720 5726 5715 5722 5736 5729 5737 5743 5747 5748 5747 5746 5742 5740 5738 5740 5741 5741 5741 5740 5739 5738 5736 5734 5732 5729 5729 5729 5728 5727 5726 5725 5724 5724 5723 5722 5721 5719 5718 5718 5716 5715 5714 5711
5744 5738 5735 5733 5722 5705 5723 5716 5715 5730 5734 5739 5745 5749 5749 5749 5747 5744 5742 5740 5739 5740 5739 5739 5737 5736 5736 5735 5734 5732 5729 5729 5728 5726 5725 5724 5724 5724 5723 5723 5722 5721 5719 5718 5718 5717 5716 5714 5713
5735 5718 5701 5698 5696 5706 5734 5724 5725 5743 5751 5749 5748 5749 5751 5750 5747 5743 5739 5738 5737 5736 5736 5735 5734 5733 5734 5734 5734 5733 5732 5731 5728 5727 5726 5724 5723 5722 5722 5723 5721 5721 5720 5719 5718 5717 5716 5715 5713
5727 5722 5700 5690 5696 5712 5728 5722 5737 5756 5759 5757 5755 5753 5751 5750 5748 5744 5740 5738 5737 5736 5735 5734 5733 5732 5732 5733 5734 5735 5734 5732 5730 5730 5728 5726 5725 5724 5724 5723 5721 5721 5720 5719 5719 5717 5716 5715 5714
5722 5721 5730 5714 5713 5709 5719 5730 5742 5755 5752 5752 5751 5749 5748 5748 5747 5744 5741 5740 5738 5736 5735 5734 5733 5732 5732 5733 5734 5734 5734 5732 5731 5731 5730 5728 5727 5726 5725 5723 5721 5720 5719 5719 5718 5716 5715 5714 5712
5732 5728 5720 5708 5693 5692 5709 5719 5723 5735 5740 5744 5745 5745 5746 5748 5747 5745 5742 5741 5739 5738 5736 5735 5734 5732 5732 5733 5734 5734 5733 5732 5731 5730 5729 5728 5727 5726 5725 5723 5721 5720 5718 5717 5716 5715 5714 5712 5710
5720 5719 5719 5715 5711 5696 5693 5709 5742 5743 5744 5744 5745 5747 5747 5747 5747 5745 5743 5742 5740 5738 5736 5735 5734 5733 5732 5732 5733 5732 5732 5731 5730 5729 5728 5727 5726 5725 5724 5723 5721 5719 5718 5716 5715 5713 5712 5711 5709
5727 5723 5718 5700 5702 5708 5700 5708 5749 5749 5751 5749 5748 5749 5750 5748 5748 5746 5744 5741 5739 5738 5736 5735 5734 5733 5732 5732 5732 5731 5731 5730 5728 5727 5727 5727 5726 5725 5724 5723 5721 5719 5717 5715 5713 5712 5710 5709 5707